User: anonymous   Login
Location: Unspecified
(0.0000°N, 0.0000°E)
Time: 22:48:21
(UTC+00:00)
Language:

DNEPR OBJECT AB - Orbit

View from above orbital plane
View from above orbital plane
View from above satellite
View from above satellite

Ground track
Ground track

The orbit data is extracted from the following two-line orbital elements,

1 39441U 13066AB  17113.62821297 +.00000485 +00000-0 +75868-4 0  9992
2 39441 097.6323 146.8985 0083615 120.2246 240.7277 14.74591199182789
Epoch (UTC): 23 April 2017 15:04:37
Eccentricity: 0.0083615
inclination: 97.6323°
perigee height: 588 km
apogee height: 705 km
right ascension of ascending node: 146.8985°
argument of perigee: 120.2246°
revolutions per day: 14.74591199
mean anomaly at epoch: 240.7277°
orbit number at epoch: 18278

The dashed part of the orbit path shows where the satellite is in the earth's shadow,  

DLR